This is the latest recevied weather packets stored in our database for station/object KB4MOX. If no packets are shown the sender has not sent any weather packets the latest 10 day(s).
| Time | Temp. | Humidity | Pressure | Rain* | Wind** | Luminosity | Snow |
|---|---|---|---|---|---|---|---|
| 1778252689 | 19.44° C | 63% | 1017.6 hPa | 0 mm | - | 360 W/m² | - |
| 1778252385 | 20° C | 59% | 1017.8 hPa | 0 mm | - | 266 W/m² | - |
| 1778252082 | 20° C | 61% | 1017.9 hPa | 0 mm | - | 240 W/m² | - |
| 1778251778 | 20° C | 60% | 1018.1 hPa | 0 mm | - | 279 W/m² | - |
| 1778251476 | 20° C | 61% | 1018.1 hPa | 0 mm | - | 157 W/m² | - |
| 1778251174 | 19.44° C | 61% | 1017.9 hPa | 0 mm | - | 170 W/m² | - |
| 1778250871 | 18.89° C | 64% | 1018.1 hPa | 0 mm | - | 124 W/m² | - |
| 1778250567 | 18.89° C | 65% | 1018.2 hPa | 0 mm | - | 96 W/m² | - |
| 1778250265 | 18.89° C | 65% | 1018.2 hPa | 0 mm | - | 116 W/m² | - |
| 1778249961 | 18.89° C | 69% | 1018.3 hPa | 0 mm | - | 122 W/m² | - |
| 1778249658 | 18.89° C | 70% | 1018.2 hPa | 0 mm | - | 107 W/m² | - |
| 1778249355 | 18.33° C | 69% | 1018.1 hPa | 0 mm | - | 112 W/m² | - |
| 1778249052 | 18.33° C | 70% | 1018.1 hPa | 0 mm | - | 150 W/m² | - |
| 1778248748 | 17.78° C | 71% | 1017.9 hPa | 0 mm | - | 156 W/m² | - |
| 1778248445 | 17.78° C | 72% | 1018.1 hPa | 0 mm | - | 171 W/m² | - |
| 1778248141 | 17.78° C | 76% | 1018.1 hPa | 0 mm | - | 153 W/m² | - |
| 1778247837 | 17.78° C | 75% | 1017.9 hPa | 0 mm | - | 164 W/m² | - |
| 1778247534 | 17.78° C | 77% | 1017.9 hPa | 0 mm | - | 174 W/m² | - |
| 1778247232 | 17.22° C | 80% | 1017.9 hPa | 0 mm | - | 160 W/m² | - |
| 1778246929 | 16.67° C | 79% | 1017.9 hPa | 0 mm | - | 144 W/m² | - |
| 1778246627 | 16.67° C | 79% | 1017.8 hPa | 0 mm | - | 144 W/m² | - |
| 1778246323 | 16.67° C | 80% | 1018.1 hPa | 0 mm | - | 154 W/m² | - |
| 1778246019 | 16.67° C | 82% | 1018.1 hPa | 0 mm | - | 144 W/m² | - |
| 1778245716 | 16.67° C | 81% | 1018.1 hPa | 0 mm | - | 151 W/m² | - |
| 1778245412 | 16.11° C | 81% | 1017.8 hPa | 0 mm | - | 139 W/m² | - |
* Rain latest hour (hover to see other rain measurements)
** Current wind speed in m/s (hover to see current wind gust speed)